Total_Precipitation_Accumulation
0.00 0.00 0.00 0.00 0.00 0.00 0.00 0.00 0.00 0.00 0.01 0.03 0.04 0.02 0.01 0.00 0.00 0.00 0.00 0.00 0.00 0.00 0.00 0.00 0.00 0.00 0.00 0.00 0.00 0.00 0.00 0.00 0.00 0.00 0.00 0.00 0.00 0.00 0.00 0.00 0.01 0.00 0.00
0.00 0.00 0.00 0.00 0.00 0.00 0.00 0.00 0.00 0.00 0.00 0.01 0.01 0.00 0.00 0.00 0.00 0.00 0.00 0.00 0.00 0.00 0.00 0.00 0.00 0.00 0.00 0.00 0.00 0.00 0.00 0.00 0.00 0.00 0.00 0.00 0.00 0.00 0.00 0.00 0.01 0.00 0.00
0.00 0.00 0.00 0.00 0.00 0.00 0.00 0.00 0.00 0.00 0.00 0.00 0.00 0.00 0.00 0.00 0.00 0.00 0.00 0.00 0.00 0.00 0.00 0.00 0.00 0.00 0.00 0.00 0.00 0.00 0.00 0.00 0.00 0.00 0.00 0.00 0.00 0.00 0.00 0.00 0.00 0.00 0.00
0.00 0.00 0.00 0.00 0.00 0.00 0.00 0.00 0.00 0.00 0.00 0.00 0.00 0.00 0.00 0.01 0.01 0.00 0.00 0.00 0.00 0.00 0.00 0.00 0.00 0.00 0.00 0.00 0.00 0.00 0.00 0.00 0.00 0.00 0.00 0.01 0.00 0.00 0.00 0.00 0.00 0.00 0.00
0.00 0.00 0.00 0.00 0.00 0.00 0.00 0.00 0.00 0.00 0.00 0.00 0.00 0.00 0.00 0.01 0.01 0.01 0.01 0.00 0.00 0.00 0.00 0.00 0.00 0.00 0.00 0.00 0.01 0.00 0.00 0.00 0.00 0.00 0.00 0.00 0.01 0.00 0.00 0.00 0.00 0.00 0.00
0.00 0.00 0.00 0.00 0.00 0.00 0.00 0.00 0.00 0.00 0.01 0.01 0.00 0.00 0.01 0.02 0.02 0.02 0.01 0.00 0.00 0.00 0.00 0.00 0.00 0.00 0.00 0.00 0.01 0.01 0.01 0.00 0.01 0.00 0.00 0.00 0.01 0.02 0.00 0.01 0.01 0.00 0.01
0.00 0.00 0.00 0.00 0.00 0.00 0.00 0.00 0.00 0.00 0.01 0.00 0.00 0.00 0.01 0.01 0.01 0.01 0.00 0.00 0.01 0.00 0.00 0.01 0.01 0.00 0.00 0.00 0.00 0.00 0.00 0.01 0.01 0.02 0.02 0.02 0.04 0.04 0.03 0.04 0.05 0.05 0.02
0.00 0.00 0.01 0.00 0.00 0.00 0.00 0.00 0.00 0.00 0.00 0.00 0.00 0.00 0.00 0.00 0.01 0.01 0.00 0.00 0.01 0.02 0.01 0.01 0.01 0.00 0.00 0.00 0.01 0.01 0.01 0.00 0.00 0.00 0.01 0.02 0.04 0.03 0.05 0.07 0.09 0.12 0.11
0.00 0.00 0.01 0.00 0.00 0.00 0.00 0.00 0.00 0.00 0.01 0.01 0.00 0.01 0.01 0.00 0.01 0.01 0.02 0.02 0.02 0.03 0.03 0.01 0.00 0.00 0.00 0.01 0.01 0.02 0.02 0.01 0.01 0.00 0.00 0.00 0.02 0.02 0.05 0.06 0.09 0.15 0.19
0.00 0.00 0.00 0.00 0.00 0.00 0.00 0.00 0.00 0.01 0.01 0.01 0.01 0.01 0.01 0.00 0.00 0.01 0.02 0.03 0.04 0.05 0.05 0.03 0.01 0.00 0.02 0.02 0.01 0.01 0.01 0.01 0.01 0.01 0.01 0.00 0.01 0.01 0.02 0.04 0.07 0.15 0.23
0.00 0.00 0.00 0.00 0.00 0.00 0.00 0.00 0.00 0.00 0.00 0.00 0.01 0.01 0.01 0.01 0.02 0.05 0.03 0.05 0.05 0.05 0.05 0.03 0.01 0.02 0.03 0.02 0.03 0.03 0.01 0.00 0.00 0.00 0.00 0.00 0.01 0.01 0.01 0.02 0.04 0.08 0.14
0.00 0.00 0.01 0.01 0.01 0.00 0.00 0.00 0.00 0.01 0.02 0.01 0.04 0.05 0.06 0.11 0.10 0.05 0.05 0.08 0.07 0.05 0.04 0.04 0.03 0.04 0.05 0.09 0.22 0.23 0.05 0.01 0.01 0.00 0.01 0.10 0.13 0.07 0.05 0.05 0.05 0.04 0.06
0.00 0.00 0.01 0.01 0.02 0.01 0.00 0.00 0.01 0.06 0.14 0.12 0.09 0.11 0.15 0.13 0.07 0.01 0.01 0.04 0.05 0.05 0.04 0.04 0.03 0.03 0.05 0.14 0.22 0.28 0.13 0.05 0.02 0.02 0.05 0.18 0.16 0.11 0.10 0.10 0.07 0.05 0.06
0.00 0.00 0.01 0.01 0.01 0.01 0.01 0.02 0.02 0.07 0.13 0.13 0.10 0.05 0.05 0.08 0.03 0.01 0.01 0.02 0.05 0.07 0.08 0.09 0.12 0.06 0.05 0.06 0.12 0.10 0.13 0.15 0.10 0.12 0.16 0.17 0.10 0.09 0.08 0.10 0.07 0.07 0.05
0.00 0.00 0.00 0.01 0.01 0.02 0.04 0.04 0.02 0.02 0.03 0.02 0.03 0.02 0.01 0.03 0.02 0.00 0.00 0.00 0.01 0.03 0.06 0.10 0.06 0.08 0.10 0.05 0.03 0.03 0.06 0.17 0.30 0.32 0.19 0.19 0.10 0.07 0.07 0.07 0.07 0.07 0.07
0.00 0.00 0.00 0.00 0.01 0.02 0.04 0.04 0.03 0.01 0.01 0.00 0.00 0.00 0.01 0.01 0.01 0.01 0.00 0.01 0.00 0.01 0.02 0.07 0.05 0.09 0.11 0.11 0.03 0.03 0.04 0.09 0.23 0.24 0.16 0.20 0.11 0.05 0.04 0.05 0.07 0.08 0.06
0.00 0.00 0.00 0.00 0.01 0.02 0.03 0.03 0.02 0.01 0.00 0.01 0.00 0.00 0.01 0.01 0.03 0.03 0.02 0.02 0.02 0.02 0.03 0.04 0.05 0.06 0.06 0.08 0.05 0.05 0.04 0.04 0.07 0.09 0.07 0.08 0.08 0.06 0.04 0.03 0.05 0.06 0.04
0.02 0.04 0.06 0.05 0.04 0.07 0.09 0.07 0.03 0.01 0.00 0.00 0.00 0.01 0.02 0.03 0.06 0.11 0.07 0.03 0.09 0.08 0.09 0.13 0.11 0.12 0.14 0.13 0.12 0.09 0.07 0.05 0.02 0.02 0.02 0.02 0.03 0.05 0.07 0.07 0.05 0.05 0.04
0.03 0.11 0.18 0.19 0.19 0.23 0.25 0.16 0.10 0.07 0.04 0.02 0.01 0.02 0.06 0.09 0.13 0.19 0.16 0.21 0.24 0.17 0.18 0.20 0.22 0.32 0.30 0.29 0.21 0.14 0.09 0.04 0.01 0.00 0.00 0.00 0.02 0.08 0.14 0.11 0.06 0.05 0.06
0.02 0.08 0.16 0.23 0.32 0.39 0.37 0.32 0.26 0.21 0.15 0.11 0.09 0.13 0.18 0.22 0.24 0.28 0.24 0.28 0.28 0.27 0.30 0.33 0.36 0.37 0.31 0.32 0.16 0.09 0.06 0.03 0.02 0.01 0.00 0.00 0.00 0.01 0.05 0.12 0.15 0.09 0.08
0.03 0.06 0.13 0.21 0.31 0.40 0.50 0.45 0.44 0.43 0.47 0.44 0.41 0.40 0.34 0.34 0.35 0.39 0.32 0.38 0.38 0.33 0.32 0.31 0.29 0.27 0.27 0.33 0.27 0.17 0.06 0.02 0.01 0.00 0.00 0.00 0.00 0.00 0.01 0.05 0.09 0.11 0.11
0.06 0.09 0.13 0.19 0.26 0.36 0.50 0.56 0.60 0.74 0.85 0.88 0.83 0.70 0.58 0.57 0.55 0.51 0.50 0.49 0.44 0.38 0.35 0.31 0.30 0.28 0.27 0.31 0.30 0.26 0.15 0.06 0.02 0.00 0.00 0.00 0.00 0.00 0.00 0.01 0.04 0.10 0.09
0.09 0.15 0.15 0.15 0.18 0.25 0.27 0.32 0.50 0.76 0.95 1.06 1.10 1.02 0.92 0.87 0.84 0.79 0.72 0.62 0.51 0.44 0.43 0.39 0.36 0.34 0.31 0.29 0.29 0.34 0.28 0.15 0.07 0.01 0.01 0.01 0.01 0.02 0.01 0.02 0.03 0.09 0.09
0.02 0.03 0.03 0.03 0.07 0.13 0.15 0.17 0.26 0.51 0.82 1.07 1.24 1.26 1.23 1.15 1.04 0.93 0.80 0.64 0.51 0.44 0.43 0.39 0.36 0.38 0.37 0.32 0.29 0.31 0.31 0.26 0.21 0.08 0.02 0.03 0.07 0.07 0.06 0.04 0.02 0.04 0.05
0.00 0.00 0.00 0.00 0.02 0.05 0.07 0.08 0.09 0.18 0.29 0.36 0.46 0.57 0.68 0.74 0.75 0.68 0.61 0.54 0.44 0.35 0.34 0.37 0.42 0.43 0.40 0.36 0.32 0.28 0.26 0.24 0.22 0.18 0.09 0.14 0.20 0.17 0.10 0.06 0.04 0.03 0.03
0.00 0.00 0.00 0.00 0.01 0.01 0.02 0.03 0.05 0.11 0.21 0.27 0.30 0.31 0.33 0.36 0.38 0.35 0.33 0.33 0.31 0.30 0.29 0.31 0.36 0.40 0.40 0.40 0.38 0.35 0.31 0.26 0.26 0.27 0.23 0.27 0.29 0.25 0.20 0.16 0.13 0.08 0.08